Location: Newark
(53.7496°N, 2.4752°W)
Time: 12:48:43
(UTC+00:00)

OTV 5 (USA 277) - Visible Passes

Search period start: 23 October 2019 00:00
Search period end: 02 November 2019 00:00
Orbit: 310 x 324 km, 54.5° (Epoch: 17 October)

Date Brightness Start Highest point End Pass type
(mag) Time Alt. Az. Time Alt. Az. Time Alt. Az.
30 Oct ? 19:07:11 10° SW 19:07:33 13° SSW 19:07:33 13° SSW visible
31 Oct ? 17:48:49 10° S 17:50:17 14° SE 17:50:56 13° ESE visible
31 Oct ? 19:21:26 10° WSW 19:21:50 13° WSW 19:21:50 13° WSW visible
01 Nov ? 18:02:17 10° SSW 18:04:35 24° SSE 18:05:08 23° SE visible
01 Nov ? 19:35:55 10° WSW 19:36:01 11° WSW 19:36:01 11° WSW visible
